{"data":{"norad_id":42804,"epoch":"2026-05-25T01:10:26.908320Z","epoch_age_seconds":67833,"freshness":"FRESH","line1":"1 42804U 17039B   26145.04892255 -.00000003  00000+0 -79559-5 0  9995","line2":"2 42804  86.3980   3.3107 0002151  82.2162 277.9278 14.34217525466639","mean_motion":14.34217525,"eccentricity":0.0002151,"inclination_deg":86.398,"raan_deg":3.3107,"arg_perigee_deg":82.2162,"mean_anomaly_deg":277.9278,"bstar":-7.9559e-6,"rev_number":46663,"period_min":100.40317977568,"perigee_km":776.12868912044,"apogee_km":779.2071163896,"semimajor_km":7155.804902755,"source":"CELESTRAK","updated_at":"2026-05-25T13:38:14.799786Z"}}